Weather History for K40J - September, 2012

Change the Weather History Date:

Sunday, September 30, 2012

  Actual Average (KCTY) Record (KCTY)
Temperature  
Mean Temperature 79 °F 75 °F  
Max Temperature 86 °F 86 °F 93 °F (2005)
Min Temperature 72 °F 65 °F 50 °F (2006)
Degree Days  
Heating Degree Days 0 0  
Month to date heating degree days 0  
Since 1 July heating degree days 0  
Cooling Degree Days 14 10  
Month to date cooling degree days 404  
Year to date cooling degree days 2342  
Growing Degree Days 29 (Base 50)    
Moisture  
Dew Point 70 °F    
Average Humidity 81    
Maximum Humidity 93    
Minimum Humidity 59    
Precipitation  
Precipitation 0.02 in 0.11 in 4.14 in (1998)
Month to date precipitation 4.46  
Year to date precipitation 39.83  
Sea Level Pressure  
Sea Level Pressure 29.83 in    
Wind  
Wind Speed 2 mph (SSE)    
Max Wind Speed 12 mph    
Max Gust Speed -    
T = Trace of Precipitation, MM = Missing Value Source: NWS Daily Summary

Daily Weather History Graph

Daily Weather History Graph

Search for Another Location

Airport or City:

Trip Planner

Search our weather history database for the weather conditions in past years. The results will help you decide how hot, cold, wet, or windy it might be!

Date:

Astronomy

Sep. 30, 2012 Rise Set
Actual Time 7:27 AM EDT 7:20 PM EDT
Civil Twilight 7:03 AM EDT 7:44 PM EDT
Nautical Twilight 6:35 AM EDT 8:11 PM EDT
Astronomical Twilight 6:07 AM EDT 8:39 PM EDT
Moon 7:31 PM EDT 7:51 AM EDT
Length of Visible Light 12h 40m
Length of Day
11h 52m
Full, 100% of the Moon is Illuminated
Sep 30
Full
Oct 8
Last Quarter
Oct 15
New
Oct 21
First Quarter
Oct 29
Full

Hourly Weather History & Observations

Time (EDT) Temp. Heat Index Dew Point Humidity Pressure Visibility Wind Dir Wind Speed Gust Speed Precip Events Conditions
12:53 AM 73.9 °F - 69.1 °F 85% 29.90 in - Calm Calm - 0.01 in   Unknown
1:53 AM 73.0 °F - 69.1 °F 87% 29.89 in - Calm Calm - N/A   Unknown
2:53 AM 73.0 °F - 69.1 °F 87% 29.88 in - Calm Calm - N/A   Unknown
3:53 AM 72.0 °F - 69.1 °F 91% 29.86 in - Calm Calm - N/A   Unknown
4:53 AM 72.0 °F - 69.1 °F 91% 29.85 in - Calm Calm - N/A   Unknown
5:53 AM 72.0 °F - 69.1 °F 91% 29.84 in - Calm Calm - N/A   Unknown
6:53 AM 73.0 °F - 69.1 °F 87% 29.85 in - Calm Calm - N/A   Unknown
7:53 AM 73.0 °F - 69.1 °F 87% 29.85 in - Calm Calm - 0.01 in   Unknown
8:53 AM 73.9 °F - 70.0 °F 87% 29.86 in - Calm Calm - N/A   Unknown
9:53 AM 75.9 °F - 71.1 °F 85% 29.86 in - Calm Calm - N/A   Unknown
10:53 AM 77.0 °F - 72.0 °F 84% 29.86 in - ESE 3.5 mph - N/A   Unknown
11:53 AM 79.0 °F - 72.0 °F 79% 29.86 in - SE 3.5 mph - N/A   Unknown
12:53 PM 84.0 °F 89.0 °F 71.1 °F 65% 29.85 in - Variable 5.8 mph - N/A   Unknown
1:53 PM 84.0 °F 88.4 °F 70.0 °F 63% 29.83 in - SW 10.4 mph - N/A   Unknown
2:53 PM 84.0 °F 89.6 °F 72.0 °F 67% 29.81 in - SSW 9.2 mph - N/A   Unknown
3:53 PM 86.0 °F 90.7 °F 70.0 °F 59% 29.78 in - SSW 11.5 mph - N/A   Unknown
4:53 PM 84.9 °F 89.4 °F 70.0 °F 61% 29.78 in - South 10.4 mph - N/A   Unknown
5:53 PM 82.0 °F 85.9 °F 70.0 °F 67% 29.78 in - SSW 10.4 mph - N/A   Unknown
6:53 PM 81.0 °F 85.2 °F 72.0 °F 74% 29.78 in - South 6.9 mph - N/A   Unknown
7:53 PM 78.1 °F - 72.0 °F 81% 29.78 in - Calm Calm - N/A   Unknown
8:53 PM 75.9 °F - 72.0 °F 87% 29.78 in - SE 4.6 mph - N/A   Unknown
9:53 PM 75.0 °F - 71.1 °F 87% 29.80 in - SE 3.5 mph - N/A   Unknown
10:53 PM 73.0 °F - 71.1 °F 93% 29.81 in - SE 4.6 mph - N/A   Unknown
11:53 PM 73.0 °F - 70.0 °F 90% 29.80 in - SE 5.8 mph - N/A   Unknown